Location: Laverne
(36.7100°N, 99.8930°W)
Time: 08:43:49
(UTC-06:00)

Daily predictions for brighter satellites

Satellite Brightness Start Highest point End
(mag) Time Altitude Azimuth Time Altitude Azimuth Time Altitude Azimuth
Cosmos 1844 Rocket 4.2 18:11:57 10° NW 18:17:15 43° WSW 18:22:30 10° S
Cosmos 2297 4.3 18:12:57 10° N 18:18:13 36° ENE 18:23:28 10° SE
Meteor 1-28 Rocket 4.3 18:18:40 10° NE 18:21:48 25° E 18:24:56 10° SSE
Lacrosse 4 Rocket 3.3 18:21:46 10° NE 18:22:49 11° NE 18:23:53 10° ENE
Cosmos 1151 Rocket 3.0 18:20:27 10° N 18:24:45 90° E 18:29:03 10° S
Tiangong 1 3.1 18:24:16 10° S 18:26:09 16° SE 18:28:02 10° ESE
Aureole 2 Rocket 3.1 18:23:26 10° SSW 18:27:07 67° WNW 18:31:09 10° NNE
Cosmos 2279 Rocket 4.0 18:23:37 10° N 18:29:46 60° E 18:35:55 10° SSE
IDEFIX/ARIANE 42P 3.5 18:26:46 10° S 18:31:51 55° W 18:37:00 10° NNW
Milstar 3 4.3 18:25:59 10° WSW 18:32:19 33° SSW 18:38:17 10° SE
Cosmos 372 Rocket 3.9 18:27:26 10° NNW 18:32:34 86° ENE 18:37:39 10° SSE
Cosmos 540 Rocket 4.4 18:28:00 10° SW 18:33:01 50° WNW 18:38:03 10° N
Cosmos 2058 3.0 18:32:23 10° S 18:36:29 83° W 18:40:36 10° N
Cosmos 1805 Rocket 3.6 18:36:38 10° S 18:41:01 61° E 18:45:25 10° NNE
Cosmos 1461 3.3 18:39:15 10° SW 18:43:25 63° WNW 18:47:28 10° NNE
SKYMED 2 3.5 18:41:36 10° NNE 18:45:58 84° ESE 18:50:17 10° S
USA 215 4.1 18:40:56 10° E 18:46:29 31° NNE 18:52:04 10° NNW
Nadezhda 4 Rocket 4.2 18:40:35 10° SSE 18:46:32 48° E 18:52:33 10° NNE
Cosmos 1626 2.2 18:44:04 10° S 18:47:42 53° E 18:51:22 10° NNE
Cosmos 1900 4.4 18:43:36 10° NNW 18:48:30 58° ENE 18:53:26 10° SE
Sich 1 3.2 18:49:36 10° S 18:53:55 54° E 18:58:15 10° NNE
BREEZE-M DEB (TANK) 3.7 18:53:22 10° WNW 18:55:16 17° NNW 18:56:47 10° NNE
Cosmos 1356 Rocket 3.2 18:52:31 10° S 18:56:29 71° E 19:00:28 10° NNE
Lacrosse 5 rocket 2.2 18:53:55 10° NW 18:57:37 48° SW 19:01:31 10° SSE
Aureole 1 Rocket 3.9 18:52:54 10° S 18:57:58 54° E 19:04:39 10° NNE
Cosmos 2180 Rocket 4.5 18:52:47 10° N 18:59:00 86° E 19:05:15 10° S
ALOS 3.3 18:57:59 10° ESE 19:01:41 24° ENE 19:05:23 10° NNE
Coronas F rocket 1.3 19:01:22 10° SSE 19:03:39 41° E 19:03:52 39° ENE
Cosmos 1633 Rocket 3.0 19:00:01 10° S 19:04:21 62° E 19:08:42 10° NNE
Cosmos 2333 Rocket 4.5 19:03:25 10° WSW 19:07:34 21° NW 19:11:45 10° N
Cosmos 1603 4.0 19:02:25 10° S 19:07:43 45° ESE 19:12:04 15° NE
Cosmos 1092 Rocket 4.1 19:02:51 10° SSE 19:08:56 52° E 19:15:04 10° NNE
Cosmos 292 Rocket 4.1 19:06:54 10° S 19:11:21 41° ESE 19:14:08 21° NE
Cosmos 1455 2.0 19:08:39 10° N 19:12:27 68° E 19:16:15 10° SSE
Cosmos 2278 Rocket 4.2 19:12:07 10° NW 19:17:02 31° WSW 19:21:56 10° SSW
Cosmos 1184 Rocket 3.0 19:15:22 10° SSW 19:18:41 71° W 19:22:01 10° N
SJ-6B 2.8 19:19:13 10° SSE 19:23:16 71° ENE 19:27:24 10° N
Spot 2 Rocket 3.8 19:23:38 10° SE 19:28:20 41° ENE 19:33:03 10° N
USA 229 DEB 3.7 19:21:55 10° SSW 19:28:46 84° WNW 19:34:38 15° NNE
USA 229 3.7 19:22:01 10° SSW 19:28:52 85° WNW 19:34:42 16° NNE
Iridium 4 Rocket 2.9 19:27:21 10° S 19:31:52 74° E 19:36:06 10° N
Cosmos 1707 Rocket 4.5 19:28:20 10° NNW 19:32:31 49° W 19:36:43 10° SSW
FREGAT/IRIS 3.0 19:35:50 10° S 19:38:51 62° W 19:41:53 10° NNW
SL-19 R/B 4.2 19:35:38 10° SSE 19:41:30 72° ENE 19:47:05 10° N
NOSS 3-1 (A) 4.0 19:37:49 10° S 19:42:21 32° ESE 19:42:21 32° ESE
Cosmos 2369 Rocket 3.5 19:40:05 10° N 19:42:51 23° NNE 19:42:51 23° NNE
SL-16 R/B 4.0 19:42:13 10° WSW 19:47:05 29° WNW 19:51:57 10° N
Resurs 01 Rocket 1.5 19:45:53 10° SSE 19:50:18 72° ENE 19:54:44 10° N
Cosmos 1933 Rocket 3.5 19:47:37 10° S 19:52:03 84° W 19:53:46 37° N
Cosmos 923 Rocket 4.3 19:48:41 10° SSW 19:53:50 64° WNW 19:57:25 20° N
Cosmos 1680 Rocket 3.6 19:55:01 10° SSW 20:00:13 74° WNW 20:02:29 35° N
Lacrosse 4 Rocket 1.6 19:57:55 10° NNW 20:01:46 63° W 20:01:46 63° W
Tiangong 1 3.4 19:58:59 10° WSW 20:00:16 23° WSW 20:00:16 23° WSW
Cosmos 1655 Rocket 3.9 19:59:48 10° S 20:06:09 73° E 20:09:16 32° NNE
Cosmos 1627 Rocket 4.4 20:02:07 10° S 20:08:19 81° W 20:14:29 10° N
FENGYUN 3A 3.8 20:05:11 10° S 20:10:31 71° WSW 20:15:54 10° NNW
NOSS 3-1 (C) 3.2 20:14:38 10° SSW 20:20:20 90° WNW 20:20:20 90° WNW
Cosmos 1943 3.3 20:18:54 10° SSW 20:23:49 68° SSW 20:23:49 68° SSW
USA 215 3.2 20:28:15 72° SSE 20:29:00 84° SW 20:35:36 10° NW
ATLAS 5 CENTAUR R/B 4.4 20:27:50 10° N 20:28:57 15° N 20:28:57 15° N
ALOS 4.0 20:34:52 10° SSW 20:38:56 30° W 20:43:03 10° NW
